OBJECT B, 69539

Orbit data source: Space-Track

You're viewing an Uncataloged Satellite

Recently launched and/or uncataloged satellites may have evolving metadata. Metadata may include but not limited to: Owner, Maufacturer, Bus, Motor, and Mission.

OBJECT B, 69539 is a Chinese satellite in SSO that was launched on Mon, 15 Jun 2026 UTC via a LIJIAN-1 launch vehicle from the Jiuquan Satellite Launch Center, China (JSC). Unknown objects in Earth's orbit typically refer to objects detected orbiting the Earth but have not yet been identified or cataloged. These objects could be anything from previously untracked satellites, spent rocket stages, debris from satellite collisions, or even natural meteoroids temporarily captured by Earth's gravity.

Loading next visibility...
Identifier
69539, 2026-134B
Orbit
SSO
Country
Flag of CNCN / PRC
Related business
None
Manufacturer
Unknown
Mission
Operational spacecraft
Bus & Motor
Unknown
Mass
Unknown
Launch date (UTC)
2026-06-15 (1 day ago)
Launch vehicle
LIJIAN-1
Launch site
Jiuquan Satellite Launch Center, China (JSC)
Object type
Unknown
Shape & HBR
Unknown
Radar Cross Section
RCS unknown

Expand to show TLE details & history
Last TLE update: 1 day ago

TLE from 1 day ago
0 OBJECT B
1 69539U 26134B   26166.46461128  .00001398  00000-0  91586-4 0  9995
2 69539  97.6968 236.5585 0014612 281.1430  78.8156 15.09347764    41
Epoch: 2026-06-15T11:09Z
TLE epoch observation values (Epoch: 2026-06-15T11:09:02.414Z)
Latitude
0.00002°
Longitude
165.54782°
Altitude
539.313 km
Speed
7.594 km/s
True Right ascension
15h 46m 14s
True Declination
0° 00' 00"
Sunlit
Object was in full shadow at epoch
Visualization orbit readout
Latitude
Unknown
Longitude
Unknown
Altitude
Unknown
Speed
Unknown
Apparent Right ascension
Unknown
Apparent Declination
Unknown
Sunlit
N/A
Visualization observer readout
Local Sidereal Time
04:51:41
Azimuth
Unknown
Elevation
Unknown
Doppler factor
Unknown
Orbital elements
Apogee altitude
545.286 km
Perigee altitude
525.083 km
Semi-major axis
6,913.321 km
Eccentricity
0.00146
Inclination
97.6968°
RAAN
236.5585°
Arg. of periapsis
281.143°
True anomaly
78.97992°
Mean anomaly
78.8156°
Eccentric anomaly
78.89775°
Mean motion
3.77584 °/min
Orbital period
95.34 mins
BSTAR
0.000091586
Loading maneuver chart data...
Computing Atmospheric mass density...
Loading historical data...
Loading historical data...
Loading historical data...
Loading historical data...
Loading historical data...
Loading historical data...
Loading historical data...

Documentation

Showing up to 5 results
|